Location: Burla
(50.9568°N, 10.4983°E)
Time: 21:16:22
(UTC+00:00)

USA 234 - Pass Details

Date: 18 January 2026
Orbit: 1102 x 1106 km, 123.0° (Epoch: 4 January)

Event Time Altitude Azimuth Distance (km) Brightness Sun altitude
Rises 06:27:17 0° 57° (ENE) 3,934 6.7 -7.0°
Reaches altitude 10° 06:29:52 10° 62° (ENE) 2,973 6.1 -6.7°
Maximum altitude 06:36:17 53° 139° (SE) 1,331 4.2 -5.7°
Drops below altitude 10° 06:42:39 10° 216° (SW) 2,959 5.4 -4.8°
Sets 06:45:12 0° 221° (SW) 3,914 6.0 -4.5°
